This demonstration page uses our WeatherBlox Daily Observations layout. Learn more.

Left ArrowRight Arrow

Hourly Observations for June 19, 2019

Temp ( °F °C ) Dew Point ( °F °C ) Humidity (%) Winds ( mph kmh ) Pressure ( in mb ) Visibility ( mi km ) Precip ( " mm )
12:56 am 00:56 Cloudy with Mist and Fog 66 19 63 17 88 88 NNE 5 7 29.82 1010 6 10 0.00 0.00
1:56 am 01:56 Mostly Cloudy 66 19 63 17 88 88 NE 5 7 29.80 1009 10 16 0.00 0.00
2:56 am 02:56 Mostly Cloudy 64 18 61 16 88 88 WNW 3 6 29.78 1009 10 16 0.00 0.00
3:56 am 03:56 Cloudy with Mist and Fog 64 18 63 17 94 94 N 3 6 29.79 1009 4 6 0.00 0.00
4:56 am 04:56 Cloudy 64 18 61 16 88 88 NNE 3 6 29.77 1008 7 11 0.00 0.00
5:56 am 05:56 Cloudy with Mist and Fog 64 18 61 16 88 88 NNE 3 6 29.77 1008 6 10 0.00 0.00
6:56 am 06:56 Cloudy 64 18 61 16 88 88 N 5 7 29.77 1008 7 11 0.00 0.00
7:56 am 07:56 Cloudy 66 19 61 16 83 83 N 3 6 29.78 1009 7 11 0.00 0.00
8:56 am 08:56 Cloudy 68 20 61 16 78 78 N 5 7 29.77 1008 7 11 0.00 0.00
9:56 am 09:56 Mostly Cloudy 68 20 61 16 78 78 NNE 3 6 29.75 1008 7 11 0.00 0.00
10:56 am 10:56 Mostly Cloudy 70 21 59 15 69 69 E 5 7 29.75 1007 7 11 0.00 0.00
11:56 am 11:56 Mostly Cloudy N/A N/A N/A ENE 5 7 29.74 1007 10 16 0.00 0.00
12:56 pm 12:56 Cloudy 73 23 59 15 61 61 ESE 3 6 29.72 1007 10 16 0.00 0.00
1:56 pm 13:56 Cloudy 75 24 59 15 57 57 S 5 7 29.71 1006 10 16 0.00 0.00
2:56 pm 14:56 Partly Cloudy 77 25 59 15 54 54 Calm 29.69 1005 10 16 0.00 0.00
3:56 pm 15:56 Mostly Sunny 81 27 57 14 45 45 SW 3 6 29.67 1005 10 16 0.00 0.00
4:56 pm 16:56 Mostly Sunny 79 26 57 14 48 48 Calm 29.66 1004 10 16 0.00 0.00
5:56 pm 17:56 Mostly Sunny 79 26 55 13 45 45 N 5 7 29.65 1004 10 16 0.00 0.00
6:56 pm 18:56 Mostly Sunny 79 26 55 13 45 45 NNE 5 7 29.64 1004 10 16 0.00 0.00
7:56 pm 19:56 Mostly Sunny 77 25 57 14 51 51 N 6 9 29.65 1004 10 16 0.00 0.00
8:56 pm 20:56 Partly Cloudy 75 24 57 14 54 54 NNW 5 7 29.65 1004 10 16 0.00 0.00
9:56 pm 21:56 Partly Cloudy 73 23 57 14 57 57 Calm 29.68 1005 10 16 0.00 0.00
10:56 pm 22:56 Partly Cloudy N/A N/A N/A SE 3 6 29.67 1005 10 16 0.00 0.00
11:56 pm 23:56 Partly Cloudy 70 21 63 17 78 78 Calm 29.67 1005 10 16 0.00 0.00

Powered by AerisWeather